Location: La Fredeussais
(48.1780°N, 1.3980°W)
Time: 05:45:38
(UTC+00:00)

ITUPSAT 1 - Pass Details

Date: 27 October 2021
Orbit: 702 x 712 km, 98.6° (Epoch: 06 December)

Event Time Altitude Azimuth Distance (km) Brightness Sun altitude
Rises 05:30:39 0° 125° (SE) 3,083 ? -12.7°
Reaches altitude 10° 05:33:17 10° 111° (ESE) 2,169 ? -12.2°
Maximum altitude 05:36:56 23° 61° (ENE) 1,498 ? -11.6°
Drops below altitude 10° 05:40:36 10° 11° (N) 2,180 ? -11.0°
Sets 05:43:15 0° 356° (N) 3,103 ? -10.6°
